STARLINK-1621, 46127

Orbit data source: Space-Track

STARLINK-1621, 46127 is a payload satellite owned by SpaceX/Seattle (US) in LEO that was launched on Tue, 18 Aug 2020 UTC via an FALCON 9 launch vehicle from the Air Force Eastern Test Range (AFETR). Payload-class satellites include a variety of spacecraft equipped with specific instruments for various scientific and technological missions. These include communications satellites like Starlink; space stations such as the ISS; scientific satellites like the Hubble; Earth observation satellites from companies like Planet Labs, Umbra, and HawkEye 360; GPS; miniature CubeSats for education and research; and military/defense satellites.

Loading next visibility...
Identifier
46127, 2020-057L
Orbit
LEO
Country
Flag of USUS
Related business
Manufacturer
SpaceX/Seattle
Mission
Partially operational Commercial Communications
Bus & Motor
STARLINK, Unknown motor
Mass
260 kg wet, ~248 kg dry
Launch date (UTC)
2020-08-18 (5 years ago)
Launch vehicle
FALCON 9
Launch site
Air Force Eastern Test Range (AFETR)
Object type
Payload
Rocket body
Debris
Shape & HBR
Box + 1 Pan, 10.1 m
Radar Cross Section
13.562 m², Large (>1 m²)

Expand to show TLE details & history
Last TLE update: 12 hours ago

TLE from 12 hours ago
0 STARLINK-1621
1 46127U 20057L   25291.07153979  .00115094  00000-0  30249-2 0  9994
2 46127  53.0524 211.9397 0006645 125.2675 234.8950 15.37710647284918
Epoch: 2025-10-18T01:43Z
TLE epoch observation values (Epoch: 2025-10-18T01:43:01.037Z)
Latitude
-0.00005°
Longitude
159.37752°
Altitude
456.384 km
Speed
7.639 km/s
True Right ascension
14h 07m 45s
True Declination
0° 00' 00"
Sunlit
Object was in daylight at epoch
Visualization orbit readout
Latitude
Unknown
Longitude
Unknown
Altitude
Unknown
Speed
Unknown
Apparent Right ascension
Unknown
Apparent Declination
Unknown
Sunlit
N/A
Visualization observer readout
Local Sidereal Time
08:10:53
Azimuth
Unknown
Elevation
Unknown
Doppler factor
Unknown
Orbital elements
Apogee altitude
457.695 km
Perigee altitude
448.616 km
Semi-major axis
6,831.293 km
Eccentricity
0.00066
Inclination
53.0524°
RAAN
211.9397°
Arg. of periapsis
125.2675°
True anomaly
234.83273°
Mean anomaly
234.895°
Eccentric anomaly
234.86386°
Mean motion
3.84405 °/min
Orbital period
93.65 mins
BSTAR
0.0030249
Loading maneuver chart data...
Computing Atmospheric mass density...

Documentation

Showing up to 5 results
|